Location: Chiroubles
(46.1812°N, 4.6660°E)
Time: 03:34:41
(UTC+00:00)

NOSS 0 Rocket - Pass Details

Date: 15 August 2020
Orbit: 933 x 956 km, 70.0° (Epoch: 27 September)

Event Time Altitude Azimuth Distance (km) Brightness Sun altitude
Rises 22:42:46 0° 332° (NNW) 3,638 8.2 -28.5°
Reaches altitude 10° 22:45:19 10° 333° (NNW) 2,691 7.2 -28.6°
Maximum altitude 22:51:36 81° 61° (ENE) 972 3.9 -28.9°
Enters shadow 22:51:48 80° 94° (E) 975 3.8 -28.9°
